一网星座-0527星 (ONEWEB-0527 )

导读 | 豆包AI

ONEWEB-0527是英国OneWeb星座的低轨通信卫星,于2022年12月8日发射入轨,运行在约1200公里高度近地轨道。作为OneWeb全球卫星互联网组网的组成部分,该卫星采用Ku波段提供用户通信,单星可覆盖近百万平方公里区域,为偏远地区、海上及航空用户提供宽带互联网接入服务。卫星重量约147.5kg,设计寿命5年,失效后会主动离轨坠入大气层烧毁,符合空间 debris 减缓要求。

基本信息
目录编号:
54642
目录名称:
ONEWEB-0527
国际标识:
2022-166A
轨道中心:
EARTH
卫星名称:
一网星座-0527星
卫星全名:
一网星座-0527星 (ONEWEB-0527 )
卫星状态:
在轨 (已飞行1192 天)
发射日期:
2022-12-08 UTC
国别 :
英国 (GB)
星等 :
--
轨道信息
数据来源 国际轨道数据
星历时间: 2026-03-14T06:40:19+0800
10小时前
查看轨道信息
半长轴: 7555.893km
偏心率: 0.0001741
轨道倾角: 87.916°
近地点辐角 92.336°
升交点赤经 262.987°
平近点角 267.798°
近地点: 1176.44km
远地点: 1179.072km
周期: 108.940分钟
每日圈数: 13.218254
详细信息
平衡模式:
三轴稳定
覆盖范围:
全球
运营商:
一网卫星公司
运营商所在国:
英国
制造商(研发单位):
一网卫星公司
制造商所在国:
英国
使用方式:
暂无
卫星简介
OneWeb卫星网络由648颗重约125公斤的微型卫星组成,运行在1200公里的轨道上。 每颗卫星都能够提供至少每秒8千兆位的吞吐量,以使用其高吞吐量的Ku频段有效载荷为家庭和移动平台提供互联网接入。该卫星仍在工作。
2D轨道图
3D轨道图
轨道高度分析图
轨道倾角分析图
轨道综合分析图
查看轨道综合分析图